Monticello, KY

10:03 PM EDT on April 24, 2017 (GMT -0400)
Wayne County

Weather History for KEKQ - February, 2013

Change the Weather History Date:

Monday, February 4, 2013

  Actual Average Record
Temperature  
Mean Temperature 35 °F -  
Max Temperature 52 °F 47 °F 74 °F (1962)
Min Temperature 18 °F 25 °F -8 °F (1970)
Degree Days  
Heating Degree Days 30    
Moisture  
Dew Point 26 °F    
Average Humidity 65    
Maximum Humidity 100    
Minimum Humidity 35    
Precipitation  
Precipitation 0.00 in - - ()
Sea Level Pressure  
Sea Level Pressure 30.04 in    
Wind  
Wind Speed 4 mph (NE)    
Max Wind Speed 14 mph    
Max Gust Speed 20 mph    
Visibility 9 miles    
Events Rain    
Averages and records for this station are not official NWS values.
T = Trace of Precipitation, MM = Missing Value Source: NWS Daily Summary

Daily Weather History Graph

Daily Weather History Graph

Search for Another Location

Airport or City:

Trip Planner

Search our weather history database for the weather conditions in past years. The results will help you decide how hot, cold, wet, or windy it might be!

Date:

Astronomy

Feb. 04, 2013 Rise Set
Actual Time 6:38 AM CST 5:08 PM CST
Civil Twilight 6:11 AM CST 5:35 PM CST
Nautical Twilight 5:40 AM CST 6:06 PM CST
Astronomical Twilight 5:10 AM CST 6:36 PM CST
Moon 1:11 AM CST (2/4) 11:33 AM CST (2/4)
Length of Visible Light 11h 23m
Length of Day
10h 29m
Last Quarter, 37% of the Moon is Illuminated
Feb 4
Last Quarter
Feb 10
New
Feb 17
First Quarter
Feb 25
Full
Mar 4
Last Quarter

Hourly Weather History & Observations

Time (CST) Temp. Windchill Dew Point Humidity Pressure Visibility Wind Dir Wind Speed Gust Speed Precip Events Conditions
12:56 AM 18.1 °F - 18.1 °F 100% 30.18 in 6.0 mi Calm Calm - N/A   Clear
1:56 AM 19.0 °F - 19.0 °F 100% 30.15 in 4.0 mi Calm Calm - N/A   Clear
2:56 AM 20.1 °F - 19.0 °F 96% 30.17 in 5.0 mi Calm Calm - N/A   Clear
4:56 AM 20.1 °F - 20.1 °F 100% 30.17 in 6.0 mi Calm Calm - N/A   Clear
5:56 AM 23.0 °F - 22.1 °F 96% 30.16 in 5.0 mi Calm Calm - N/A   Clear
6:56 AM 26.1 °F 21.9 °F 25.2 °F 96% 30.14 in 8.0 mi Variable 3.5 mph - N/A   Clear
7:56 AM 28.0 °F 24.2 °F 25.2 °F 89% 30.14 in 9.0 mi Variable 3.5 mph - N/A   Clear
8:56 AM 31.1 °F 26.4 °F 25.2 °F 79% 30.13 in 10.0 mi Variable 4.6 mph - N/A   Clear
9:56 AM 34.9 °F 29.0 °F 28.0 °F 76% 30.12 in 10.0 mi North 6.9 mph - N/A   Clear
10:56 AM 39.9 °F 35.1 °F 27.1 °F 60% 30.09 in 10.0 mi North 6.9 mph - N/A   Clear
11:56 AM 45.0 °F 40.6 °F 27.1 °F 50% 30.03 in 10.0 mi North 8.1 mph - N/A   Partly Cloudy
12:56 PM 48.9 °F - 28.0 °F 44% 29.99 in 10.0 mi NNE 12.7 mph - N/A   Scattered Clouds
1:56 PM 50.9 °F - 28.0 °F 41% 29.97 in 10.0 mi NE 13.8 mph 19.6 mph N/A   Scattered Clouds
2:56 PM 52.9 °F - 26.1 °F 35% 29.95 in 10.0 mi NE 12.7 mph - N/A   Mostly Cloudy
3:56 PM 50.9 °F - 26.1 °F 38% 29.94 in 10.0 mi ENE 11.5 mph - N/A   Scattered Clouds
4:56 PM 48.9 °F - 28.0 °F 44% 29.95 in 10.0 mi ENE 8.1 mph - N/A   Clear
5:56 PM 47.8 °F - 29.1 °F 48% 29.95 in 10.0 mi NNE 4.6 mph - N/A   Clear
6:56 PM 48.9 °F - 28.0 °F 44% 29.96 in 10.0 mi ENE 6.9 mph - N/A   Mostly Cloudy
7:56 PM 46.9 °F - 29.1 °F 50% 29.97 in 10.0 mi NE 6.9 mph - N/A   Mostly Cloudy
8:56 PM 46.9 °F - 27.1 °F 46% 29.97 in 10.0 mi NE 8.1 mph - N/A   Mostly Cloudy
9:56 PM 45.9 °F 44.6 °F 28.0 °F 50% 29.97 in 10.0 mi ENE 3.5 mph - N/A   Overcast
10:56 PM 45.9 °F 40.8 °F 31.1 °F 56% 29.97 in 9.0 mi ENE 10.4 mph - 0.00 in Rain Light Rain
11:56 PM 45.0 °F 39.3 °F 34.0 °F 65% 29.96 in 10.0 mi NE 11.5 mph 19.6 mph 0.00 in Rain Light Rain